カタログに戻る

NAVSTAR 62

USA 201

運用中ナビゲーションHEO
NORAD 32711·PAYLOAD·🇺🇸 United States

打ち上げ Mar 15, 2008 から Cape Canaveral Space Force Station

Loading…

次のパス (今後24時間)

TLE

最新Source: CelesTrak SupGP

元期: Sep 16, 2026, 16:44 UTC

1 32711C 08012A   26259.69756944  .00000000  00000+0  00000+0 0  2596
2 32711  54.5051 146.2681 0211437 248.5546 340.3978  2.00552851    19

AllMySatでNAVSTAR 62をリアルタイム追跡

Download on the App Store